DW1637 Weather Reports


Display with metric or nautical units.
time (UTC)temp
F
wind
direction
speed
MPH
gust
MPH
rain 1hr
in
rain 24hr
in
rain mn
in
humidity
%
barometer
mb
20260509222204 80 32 4.0 7.0 0.00 1.05 1.05 77 1008.2
20260509221205 80 4 5.0 7.0 0.00 1.05 1.05 78 1008.1
20260509220704 80 352 5.0 8.0 0.00 1.05 1.05 79 1008.0
20260509220204 80 60 4.0 7.0 0.00 1.05 1.05 80 1007.8
20260509215703 79 358 3.0 7.0 0.00 1.05 1.05 81 1007.9
20260509215204 79 13 3.0 6.0 0.00 1.05 1.05 80 1008.0
20260509214204 80 122 1.0 6.0 0.00 1.05 1.05 81 1008.0
20260509213703 80 17 3.0 8.0 0.00 1.05 1.05 80 1008.1
20260509212204 79 24 2.0 7.0 0.00 1.05 1.05 80 1008.2
20260509211704 80 42 4.0 6.0 0.00 1.05 1.05 80 1008.3
20260509211204 80 89 2.0 8.0 0.00 1.05 1.05 80 1008.3
20260509210704 80 35 5.0 7.0 0.00 1.05 1.05 80 1008.5
20260509210203 79 7 1.0 5.0 0.00 1.05 1.05 81 1008.6
20260509205704 79 102 2.0 7.0 0.00 1.05 1.05 81 1008.5
20260509205204 79 59 3.0 5.0 0.00 1.05 1.05 81 1008.5
20260509204703 79 76 3.0 7.0 0.00 1.05 1.05 81 1008.6
20260509203703 79 85 2.0 6.0 0.00 1.05 1.05 82 1008.7
20260509203204 78 70 2.0 3.0 0.00 1.05 1.05 84 1008.9
20260509202703 78 76 3.0 5.0 0.00 1.05 1.05 83 1009.0
20260509201204 79 42 3.0 6.0 0.00 1.05 1.05 82 1008.9
20260509200704 79 356 3.0 5.0 0.00 1.05 1.05 82 1008.9
20260509200204 79 21 2.0 3.0 0.00 1.05 1.05 82 1009.0
20260509195704 78 138 0.0 3.0 0.00 1.05 1.05 84 1009.0
20260509195203 78 143 2.0 5.0 0.00 1.05 1.05 85 1009.0
20260509194704 78 273 2.0 3.0 0.00 1.05 1.05 83 1009.0
20260509194203 78 5 3.0 6.0 0.00 1.05 1.05 83 1009.1
20260509193703 77 49 1.0 3.0 0.00 1.05 1.05 85 1009.1
20260509193204 77 89 1.0 3.0 0.00 1.05 1.05 83 1009.2
20260509192703 77 25 1.0 3.0 0.00 1.05 1.05 84 1009.2
20260509192203 77 52 1.0 3.0 0.00 1.05 1.05 85 1009.2
20260509191704 77 40 1.0 3.0 0.00 1.05 1.05 86 1009.3
20260509191204 77 59 2.0 3.0 0.00 1.05 1.05 86 1009.4
20260509190704 77 234 0.0 5.0 0.00 1.05 1.05 86 1009.2
20260509190203 77 299 2.0 5.0 0.00 1.05 1.05 86 1009.4
20260509185204 76 13 1.0 3.0 0.00 1.05 1.05 86 1009.5
20260509184704 75 53 0.0 2.0 0.00 1.05 1.05 89 1009.4
20260509184204 75 30 0.0 2.0 0.00 1.05 1.05 89 1009.5
20260509183704 74 30 1.0 1.0 0.00 1.05 1.05 90 1009.8
20260509183203 74 30 0.0 2.0 0.00 1.05 1.05 90 1009.8
20260509182704 74 61 1.0 5.0 0.00 1.05 1.05 90 1009.9
20260509182203 73 133 2.0 5.0 0.00 1.05 1.05 91 1010.0
20260509181704 73 119 0.0 2.0 0.00 1.05 1.05 91 1010.0
20260509181204 73 137 2.0 5.0 0.00 1.05 1.05 90 1009.9
20260509180703 73 156 1.0 2.0 0.00 1.05 1.05 90 1010.1
20260509180204 73 156 0.0 3.0 0.00 1.05 1.05 90 1010.1
20260509175704 73 162 1.0 3.0 0.00 1.05 1.05 90 1010.2
20260509175203 73 213 0.0 3.0 0.00 1.05 1.05 90 1010.3
20260509174704 73 207 2.0 3.0 0.00 1.05 1.05 91 1010.3
20260509174204 73 76 1.0 3.0 0.00 1.05 1.05 90 1010.4
20260509173704 72 137 1.0 3.0 0.00 1.05 1.05 91 1010.4
20260509173204 72 126 2.0 3.0 0.00 1.05 1.05 91 1010.5
20260509172704 72 145 1.0 2.0 0.00 1.05 1.05 91 1010.4
20260509172204 72 145 3.0 7.0 0.00 1.05 1.05 91 1010.4
20260509171703 72 132 1.0 5.0 0.00 1.05 1.05 92 1010.4
20260509170703 72 116 2.0 5.0 0.00 1.05 1.05 93 1010.4
20260509165705 71 88 2.0 5.0 0.00 1.05 1.05 93 1010.6
20260509165203 71 126 1.0 5.0 0.00 1.05 1.05 94 1010.6
20260509164703 71 123 1.0 3.0 0.00 1.05 1.05 94 1010.6
20260509164204 71 121 1.0 2.0 0.00 1.05 1.05 94 1010.5
20260509163703 71 121 1.0 2.0 0.00 1.05 1.05 94 1010.5
20260509160203 70 140 1.0 3.0 0.00 1.05 1.05 95 1010.2
20260509155704 70 154 2.0 5.0 0.00 1.05 1.05 95 1010.4
20260509155205 70 112 1.0 2.0 0.00 1.05 1.05 95 1010.3
20260509154703 69 112 0.0 1.0 0.00 1.05 1.05 95 1010.3
20260509153204 70 112 0.0 3.0 0.00 1.05 1.05 95 1010.0
20260509152703 70 106 2.0 3.0 0.00 1.05 1.05 96 1009.9
20260509152203 69 128 1.0 3.0 0.00 1.05 1.05 96 1009.8
20260509151704 69 112 2.0 5.0 0.00 1.05 1.05 96 1009.8
20260509151204 69 82 1.0 3.0 0.00 1.05 1.05 96 1009.9
20260509150703 69 70 2.0 3.0 0.00 1.05 1.05 96 1009.9
20260509150204 69 65 1.0 3.0 0.00 1.05 1.05 96 1010.0
20260509145704 69 136 1.0 3.0 0.00 1.05 1.05 96 1010.1
20260509145204 68 141 1.0 3.0 0.00 1.05 1.05 96 1010.2
20260509144704 68 111 1.0 5.0 0.00 1.05 1.05 96 1010.3
20260509144204 68 69 3.0 5.0 0.00 1.05 1.05 96 1010.2
20260509143704 68 71 1.0 3.0 0.00 1.05 1.05 96 1010.2
20260509143204 68 112 2.0 3.0 0.00 1.05 1.05 96 1010.2
20260509142704 68 95 1.0 5.0 0.00 1.05 1.05 96 1010.2
20260509142204 67 138 1.0 2.0 0.00 1.05 1.05 96 1010.3
20260509141704 67 138 1.0 2.0 0.00 1.05 1.05 96 1010.4
20260509140704 67 80 0.0 3.0 0.00 1.05 1.05 96 1010.4
20260509135204 67 43 1.0 2.0 0.00 1.05 1.05 96 1010.5
20260509134704 67 43 1.0 2.0 0.00 1.05 1.05 96 1010.6
20260509134204 67 43 0.0 2.0 0.00 1.05 1.05 96 1010.6
20260509133704 67 43 0.0 2.0 0.00 1.05 1.05 96 1010.5
20260509133204 67 43 0.0 1.0 0.00 1.05 1.05 96 1010.5
20260509132703 67 43 0.0 2.0 0.00 1.05 1.05 96 1010.4
20260509132205 67 43 1.0 2.0 0.00 1.05 1.05 96 1010.4
20260509131704 67 43 0.0 2.0 0.00 1.05 1.05 96 1010.2
20260509131204 67 43 1.0 2.0 0.00 1.05 1.05 96 1010.1
20260509130704 66 97 1.0 2.0 0.00 1.05 1.05 96 1010.1
20260509130203 66 163 2.0 2.0 0.00 1.05 1.05 96 1010.0
20260509125703 66 142 2.0 3.0 0.00 1.05 1.05 96 1010.1
20260509125204 66 151 3.0 3.0 0.00 1.05 1.05 96 1010.1
20260509124703 66 217 2.0 3.0 0.00 1.05 1.05 96 1010.0
20260509124204 66 152 1.0 3.0 0.00 1.05 1.05 96 1010.1
20260509123704 66 161 1.0 3.0 0.00 1.05 1.05 96 1010.1
20260509123204 66 125 1.0 3.0 0.00 1.05 1.05 96 1010.0
20260509122703 66 88 1.0 3.0 0.00 1.05 1.05 96 1010.0
20260509122204 66 51 1.0 3.0 0.00 1.05 1.05 96 1010.0
20260509121204 66 5 0.0 1.0 0.00 1.05 1.05 96 1009.9
20260509120205 66 5 1.0 2.0 0.00 1.05 1.05 96 1009.8
20260509115703 66 5 0.0 1.0 0.00 1.05 1.05 96 1009.8
20260509115204 66 5 1.0 2.0 0.00 1.05 1.05 96 1009.8
20260509114704 66 5 1.0 2.0 0.00 1.05 1.05 96 1009.8
20260509114204 66 159 1.0 2.0 0.00 1.05 1.05 96 1009.7
20260509113204 65 159 0.0 1.0 0.00 1.05 1.05 96 1009.7
20260509112204 65 16 1.0 2.0 0.00 1.05 1.05 96 1009.6
20260509111704 65 16 0.0 1.0 0.00 1.05 1.05 96 1009.5
20260509111204 65 16 1.0 3.0 0.00 1.05 1.05 96 1009.5
20260509105703 65 16 1.0 3.0 0.00 1.05 1.05 96 1009.2
20260509105205 65 16 0.0 1.0 0.00 1.05 1.05 96 1009.2
20260509104704 65 16 0.0 0.0 0.00 1.05 1.05 96 1009.2
20260509104204 65 16 0.0 1.0 0.00 1.05 1.05 96 1009.0
20260509103704 65 16 0.0 0.0 0.00 1.05 1.05 96 1008.9
20260509103204 65 16 0.0 0.0 0.00 1.05 1.05 96 1008.9
20260509102704 65 16 0.0 0.0 0.00 1.05 1.05 96 1009.0
20260509102205 65 16 0.0 0.0 0.00 1.05 1.05 96 1009.0
20260509101704 65 16 0.0 1.0 0.00 1.05 1.05 96 1009.1
20260509100703 65 16 0.0 1.0 0.00 1.05 1.05 96 1009.2
20260509100204 65 16 1.0 1.0 0.00 1.05 1.05 96 1009.1
20260509095704 65 16 0.0 1.0 0.00 1.05 1.05 96 1009.1
20260509095204 65 16 1.0 2.0 0.00 1.05 1.05 96 1009.1
20260509094704 65 16 0.0 2.0 0.00 1.05 1.05 95 1009.1
20260509094203 65 16 0.0 2.0 0.00 1.05 1.05 95 1009.0
20260509093204 65 16 1.0 2.0 0.00 1.05 1.05 96 1008.9
20260509092704 65 16 1.0 2.0 0.00 1.05 1.05 95 1009.1
20260509092204 65 16 0.0 2.0 0.00 1.05 1.05 95 1009.1
20260509091704 65 16 0.0 1.0 0.00 1.05 1.05 95 1009.2
20260509091204 65 16 0.0 1.0 0.00 1.05 1.05 95 1008.9
20260509090703 65 16 1.0 3.0 0.00 1.05 1.05 95 1008.9
20260509090203 65 191 1.0 2.0 0.00 1.05 1.05 95 1008.8
20260509085704 65 187 1.0 3.0 0.00 1.05 1.05 95 1009.0
20260509085204 65 165 0.0 2.0 0.01 1.05 1.05 95 1008.8
20260509084704 65 165 1.0 2.0 0.01 1.05 1.05 95 1009.0
20260509083704 65 79 2.0 3.0 0.02 1.05 1.05 95 1008.7
20260509083204 65 78 0.0 3.0 0.03 1.05 1.05 95 1008.9
20260509082704 65 52 1.0 3.0 0.06 1.05 1.05 95 1009.0
20260509082204 65 112 1.0 2.0 0.09 1.05 1.05 95 1009.2
20260509081204 65 349 0.0 1.0 0.19 1.05 1.05 95 1009.6
20260509080703 65 349 2.0 3.0 0.31 1.05 1.05 95 1009.7
20260509080204 65 164 3.0 6.0 0.48 1.05 1.05 94 1008.8
20260509075704 65 135 3.0 6.0 0.68 1.05 1.05 94 1008.8
20260509075204 65 138 2.0 5.0 0.82 1.04 1.04 94 1008.7
20260509074204 65 163 2.0 7.0 1.03 1.03 1.03 94 1008.5
20260509073704 65 155 3.0 6.0 1.03 1.03 1.03 94 1009.0
20260509073204 65 236 3.0 9.0 1.02 1.02 1.02 94 1009.4
20260509072704 65 158 2.0 9.0 0.99 0.99 0.99 93 1008.5
20260509072204 66 241 2.0 9.0 0.96 0.96 0.96 93 1008.8
20260509071705 66 151 6.0 13.0 0.94 0.94 0.94 93 1008.6
20260509071204 67 99 5.0 7.0 0.86 0.86 0.86 92 1009.3
20260509070704 67 138 1.0 6.0 0.74 0.74 0.74 92 1010.5
20260509070204 68 349 3.0 6.0 0.57 0.57 0.57 92 1011.8
20260509065704 68 270 1.0 5.0 0.37 0.37 0.37 91 1011.4
20260509064705 69 306 5.0 15.0 0.10 0.10 0.10 89 1011.4
20260509064204 70 260 5.0 13.0 0.00 0.00 0.00 91 1010.9
20260509063704 70 308 1.0 3.0 0.00 0.00 0.00 91 1010.6
20260509063204 70 230 0.0 0.0 0.00 0.00 0.00 90 1009.8
20260509062704 70 230 0.0 0.0 0.00 0.00 0.00 90 1010.3
20260509062203 70 152 0.0 1.0 0.00 0.00 0.00 90 1010.5
20260509061703 70 245 0.0 1.0 0.00 0.00 0.00 90 1010.4
20260509061203 70 248 1.0 3.0 0.00 0.00 0.00 90 1010.3
20260509060703 70 289 1.0 3.0 0.00 0.00 0.00 90 1009.9
20260509055704 70 290 0.0 1.0 0.00 0.00 0.00 90 1009.9
20260509055204 70 290 1.0 2.0 0.00 0.00 0.00 90 1010.2
20260509054704 70 290 0.0 0.0 0.00 0.00 0.00 89 1010.2
20260509054204 70 290 0.0 2.0 0.00 0.00 0.00 90 1010.4
20260509053704 70 290 2.0 3.0 0.00 0.00 0.00 89 1010.4
20260509053204 70 217 0.0 2.0 0.00 0.00 0.00 89 1009.9
20260509052204 70 171 1.0 3.0 0.00 0.00 0.00 89 1010.0
20260509051704 70 138 1.0 5.0 0.00 0.00 0.00 89 1010.1
20260509051204 70 146 1.0 3.0 0.00 0.00 0.00 89 1010.1
20260509050704 70 40 0.0 2.0 0.00 0.00 0.00 89 1010.2
20260509050204 70 40 1.0 2.0 0.00 0.00 0.00 89 1010.2
20260509045703 70 40 1.0 2.0 0.00 0.00 0.00 89 1010.3
20260509045204 70 59 1.0 2.0 0.00 0.00 0.00 89 1010.3
20260509044704 70 154 1.0 2.0 0.00 0.00 0.00 89 1010.2
20260509044203 70 154 0.0 2.0 0.00 0.00 0.00 89 1010.4
20260509043704 70 154 1.0 2.0 0.00 0.00 0.00 89 1010.4
20260509043204 70 154 0.0 1.0 0.00 0.00 0.00 88 1010.5
20260509042704 70 154 1.0 3.0 0.00 0.00 0.00 88 1010.6
20260509042205 70 117 0.0 2.0 0.00 0.00 0.00 88 1010.5
20260509041204 71 139 0.0 5.0 0.00 0.00 0.00 88 1010.6
20260509040704 71 133 1.0 5.0 0.00 0.00 0.00 88 1010.6
20260509040204 71 146 3.0 5.0 0.00 0.00 0.00 87 1010.6
20260509035703 71 141 3.0 3.0 0.00 0.00 0.00 87 1010.6
20260509035204 71 136 1.0 3.0 0.00 0.00 0.00 87 1010.4
20260509034703 71 128 2.0 3.0 0.00 0.00 0.00 87 1010.4
20260509034204 71 150 2.0 3.0 0.00 0.00 0.00 87 1010.3
20260509033703 71 133 2.0 5.0 0.00 0.00 0.00 87 1010.2
20260509033204 71 161 3.0 7.0 0.00 0.00 0.00 87 1010.1
20260509032704 71 159 3.0 7.0 0.00 0.00 0.00 87 1010.0
20260509032204 71 165 2.0 6.0 0.00 0.00 0.00 87 1010.1
20260509031704 71 138 1.0 7.0 0.00 0.00 0.00 86 1010.1
20260509031203 71 148 2.0 6.0 0.00 0.00 0.00 86 1010.1
20260509030704 71 152 2.0 8.0 0.00 0.00 0.00 87 1010.0
20260509030203 71 178 3.0 8.0 0.00 0.00 0.00 87 1010.0
20260509025704 71 156 3.0 7.0 0.00 0.00 0.00 86 1009.8
20260509025204 71 135 5.0 8.0 0.00 0.00 0.00 87 1009.7
20260509024704 71 138 2.0 3.0 0.00 0.00 0.00 86 1009.6
20260509024204 71 124 2.0 7.0 0.00 0.00 0.00 86 1009.5
20260509023704 71 86 2.0 6.0 0.00 0.00 0.00 86 1009.3
20260509023204 71 149 3.0 8.0 0.00 0.00 0.00 86 1009.1
20260509022703 71 155 2.0 5.0 0.00 0.00 0.00 86 1008.9
20260509021204 71 119 2.0 6.0 0.00 0.00 0.00 86 1008.7
20260509020704 71 148 3.0 5.0 0.00 0.00 0.00 86 1008.8
20260509020204 71 100 1.0 6.0 0.00 0.00 0.00 86 1008.7
20260509015704 71 140 1.0 5.0 0.00 0.00 0.00 86 1008.8
20260509015203 71 149 2.0 3.0 0.00 0.00 0.00 86 1008.6
20260509014705 71 174 1.0 5.0 0.00 0.00 0.00 86 1008.5
20260509013704 71 186 2.0 5.0 0.00 0.00 0.00 86 1008.4
20260509013204 71 133 2.0 6.0 0.00 0.00 0.00 86 1008.4
20260509012704 71 131 2.0 3.0 0.00 0.00 0.00 85 1008.6
20260509012204 71 75 5.0 10.0 0.00 0.00 0.00 85 1008.4
20260509011704 71 115 2.0 9.0 0.00 0.00 0.00 84 1008.2
20260509010703 71 106 3.0 12.0 0.00 0.00 0.00 83 1008.0
20260509005704 72 160 3.0 8.0 0.00 0.00 0.00 81 1007.8
20260509004704 72 154 6.0 12.0 0.00 0.00 0.00 78 1007.6
20260509004204 73 117 6.0 12.0 0.00 0.00 0.00 77 1007.5
20260509003705 73 150 5.0 12.0 0.00 0.00 0.00 76 1007.6
20260509003204 73 119 6.0 12.0 0.00 0.00 0.00 74 1007.6
20260509002704 74 150 4.0 12.0 0.00 0.00 0.00 73 1008.3
20260509002204 74 147 2.0 6.0 0.00 0.00 0.00 72 1008.6
20260509001704 74 141 2.0 12.0 0.00 0.00 0.00 71 1008.4
20260509001204 75 143 3.0 9.0 0.00 0.00 0.00 71 1008.1
20260509000704 75 103 5.0 9.0 0.00 0.00 0.00 70 1008.1
20260508235704 75 130 3.0 8.0 0.00 0.00 0.00 68 1009.1
20260508234205 75 139 3.0 7.0 0.00 0.00 0.00 66 1009.4
20260508233704 75 162 3.0 7.0 0.00 0.00 0.00 65 1009.3
20260508233204 75 129 1.0 3.0 0.00 0.00 0.00 65 1009.5
20260508232704 75 146 3.0 5.0 0.00 0.00 0.00 64 1009.9
20260508231204 76 113 3.0 5.0 0.00 0.00 0.00 60 1009.7
20260508230704 76 197 2.0 7.0 0.00 0.00 0.00 59 1009.6
20260508230205 77 156 6.0 10.0 0.00 0.00 0.00 58 1009.5
20260508225704 77 145 4.0 8.0 0.00 0.00 0.00 59 1009.6
20260508224704 77 141 3.0 7.0 0.00 0.00 0.00 59 1009.5